Temperature
17 17 17 17 17 17 17 17 17 16 16 16 16 16 16 15 15 15 15 15 15 15 15 14 14 14 14 14 14 14 14 13 13 13 13 13 12 12
17 17 17 17 17 17 17 17 16 16 16 16 15 15 15 15 15 15 15 15 14 14 14 14 14 14 14 14 13 13 13 13 13 13 13 12 12 12
17 17 17 17 17 17 16 16 16 16 16 15 15 15 14 14 14 14 14 14 14 14 14 14 14 14 13 13 13 13 13 13 12 12 12 12 12 11
17 17 16 16 16 16 16 16 16 16 16 15 15 14 14 14 14 14 14 13 13 13 13 13 13 13 13 13 12 12 12 12 12 12 11 11 11 11
16 16 16 16 16 16 16 16 16 15 15 15 15 14 14 14 14 13 13 13 13 13 13 13 12 12 12 12 12 12 11 11 11 11 11 11 11 10
16 16 16 16 16 16 16 15 15 15 15 14 14 14 14 13 13 13 12 12 12 12 12 12 12 12 12 11 11 11 11 11 11 11 10 10 10 10
16 16 16 16 16 16 15 15 15 15 15 14 14 13 13 13 13 13 12 12 11 11 11 11 11 11 11 11 11 10 10 10 10 10 10 10 10 10
16 15 15 15 15 15 15 15 15 15 14 14 14 13 13 13 13 12 12 11 11 11 11 11 11 10 10 10 10 10 10 10 10 9 9 9 9 9
15 15 15 15 15 15 15 14 14 14 14 14 13 13 13 13 12 12 12 11 11 11 10 10 10 10 10 10 10 9 9 9 9 9 9 9 9 8
15 15 15 15 14 14 14 14 14 14 13 13 13 13 13 12 12 12 12 11 11 10 10 10 10 9 9 9 9 9 9 9 8 8 8 8 8 8
15 15 14 14 14 14 14 13 13 13 13 13 13 13 12 12 12 12 11 11 10 10 10 10 9 9 9 9 9 9 8 8 8 8 8 8 8 8
14 14 14 14 14 13 13 13 13 13 12 12 12 12 12 12 11 11 11 11 10 10 10 10 9 9 8 8 8 8 8 8 8 8 8 8 7 7
14 14 14 14 14 13 13 13 12 12 12 12 12 11 11 11 11 11 10 10 10 10 10 10 9 9 9 8 8 8 8 8 8 8 8 7 7 7
13 13 13 13 13 13 13 12 12 12 12 11 11 11 11 11 11 10 10 10 10 10 10 9 9 9 9 8 8 8 8 8 8 8 7 7 7 7
14 13 13 13 13 12 12 12 12 12 11 11 11 11 11 10 10 10 10 10 10 9 9 9 9 9 9 8 8 8 8 8 8 7 7 7 7 7
13 13 12 12 12 12 12 11 11 11 11 11 11 10 10 10 10 10 9 9 9 9 9 9 9 8 8 8 8 8 8 8 8 7 7 7 7 7
13 12 12 11 11 11 11 11 11 11 11 10 10 10 10 10 9 9 9 9 9 9 9 8 8 8 8 8 8 8 8 8 8 7 7 7 7 7
12 12 11 11 11 11 10 10 10 10 10 10 10 10 10 9 9 9 9 9 8 8 8 8 8 8 8 8 8 8 8 8 8 8 7 7 7 7
11 11 11 11 11 10 10 10 10 10 10 10 10 9 9 9 9 9 9 8 8 8 8 8 8 8 7 7 8 8 8 8 8 8 7 7 7 7
11 11 11 10 10 10 10 10 10 10 9 9 9 9 9 9 9 8 8 8 8 8 8 8 8 8 8 8 8 8 8 8 8 7 7 7 7 7
11 11 10 10 10 10 10 9 9 9 9 9 9 9 8 8 8 8 8 8 8 8 8 8 8 8 8 8 8 8 8 8 8 7 7 7 7 7
11 10 10 10 10 10 9 9 9 9 9 8 8 8 8 8 8 8 8 8 8 8 8 8 8 8 7 7 7 8 8 8 8 7 7 7 7 7
10 10 10 10 9 9 9 9 9 8 8 8 8 8 8 7 7 7 7 7 7 7 7 7 7 7 7 7 7 7 7 7 7 7 7 7 7 7
Wind_Speed
3 3 3 3 2 2 3 3 3 2 2 1 1 1 4 5 5 5 6 7 8 7 7 7 6 6 7 7 7 7 7 7 6 7 7 7 7 6
2 1 2 3 1 1 2 2 2 2 2 1 0 1 3 5 6 7 8 8 8 8 8 8 7 7 7 7 8 7 7 7 6 7 7 7 7 7
2 1 1 2 2 1 1 1 2 2 2 1 0 1 2 4 5 6 6 7 7 9 9 9 8 8 8 8 8 8 7 7 7 7 7 8 8 7
1 2 2 1 1 1 1 1 1 2 3 2 1 1 1 3 4 4 5 6 7 8 9 9 8 8 8 8 8 8 8 7 7 8 8 7 7 8
1 1 1 2 2 1 0 0 1 1 2 3 2 1 1 3 4 4 5 5 6 7 8 8 9 9 9 10 10 10 9 9 8 8 8 8 7 7
1 1 2 2 2 1 0 1 1 2 2 3 3 2 2 3 3 4 3 2 3 5 6 7 8 8 9 10 9 9 9 9 9 9 8 8 7 7
2 2 3 4 4 3 2 2 1 2 2 3 3 2 2 3 3 3 4 3 2 3 3 4 6 6 7 8 8 8 8 8 8 8 8 8 7 7
1 2 3 4 4 5 5 4 3 2 2 2 2 3 3 3 3 4 4 3 2 2 3 2 4 3 5 6 8 9 8 8 7 7 7 7 7 6
2 2 1 3 3 3 4 4 3 3 3 2 3 3 3 3 4 4 4 3 2 3 3 2 2 3 5 7 10 9 9 8 7 6 6 6 6 6
2 2 2 3 3 2 2 3 3 3 3 2 2 2 3 3 3 4 4 3 3 2 3 2 2 2 3 8 11 10 9 8 7 7 7 6 5 5
2 3 2 4 3 2 1 2 3 2 4 6 5 5 6 6 6 4 4 4 3 2 2 2 2 2 2 3 9 11 10 10 9 8 8 7 7 7
3 4 5 4 3 2 0 1 2 2 3 4 3 4 5 6 6 4 4 4 2 2 3 2 2 3 2 3 6 9 10 10 11 10 10 10 10 8
2 3 3 5 4 2 1 0 1 1 2 3 3 3 3 3 3 3 2 2 2 2 4 3 2 3 3 2 3 6 9 8 10 11 12 13 13 11
1 3 4 5 3 1 1 1 1 1 2 2 3 3 3 3 2 2 2 2 2 2 5 4 2 3 3 3 3 5 6 9 9 9 10 12 14 15
2 4 4 4 3 2 3 3 2 2 2 2 2 2 3 3 3 3 3 3 2 2 4 4 2 3 3 2 3 4 5 5 9 7 8 9 9 9
2 3 3 3 3 1 2 3 3 1 1 1 1 2 3 3 3 3 3 3 2 2 4 5 4 2 3 3 2 3 4 4 5 5 5 6 10 12
3 3 3 3 3 2 2 2 2 1 1 1 1 1 2 3 3 3 3 3 3 3 3 3 5 5 4 3 3 3 3 3 4 5 4 5 5 9
2 3 3 3 3 3 2 2 2 2 1 1 2 2 2 3 3 3 3 3 3 3 3 3 3 3 3 3 4 4 3 4 3 4 4 4 5 6
2 3 2 2 2 2 2 2 2 2 2 2 2 2 2 2 2 2 3 3 3 3 3 3 4 4 5 5 5 7 5 3 3 4 4 4 5 5
3 3 2 2 1 1 1 1 1 1 2 2 2 2 2 2 2 2 3 3 3 3 3 3 4 4 5 5 3 4 9 6 4 4 5 4 4 5
3 3 3 2 2 1 1 1 1 1 1 1 2 2 2 2 2 2 2 4 4 4 4 4 4 6 4 3 4 4 5 11 9 5 4 4 4 4
2 2 1 1 1 1 1 1 2 1 1 2 2 2 2 2 3 3 3 3 4 4 4 3 3 3 3 5 6 5 4 5 9 12 10 9 4 5
1 1 1 1 1 1 1 2 2 1 1 1 2 2 2 2 3 3 3 3 3 4 3 3 2 3 4 5 5 5 6 5 5 6 7 13 15 16
Wind_Direction
262 259 266 264 231 221 220 208 206 221 244 209 149 98 104 104 107 108 103 109 123 129 134 141 146 150 152 152 152 150 147 146 149 155 157 157 158 162
256 267 281 301 287 237 229 231 208 204 223 210 125 121 117 108 109 108 106 105 114 123 121 123 127 129 134 140 141 138 135 137 145 151 155 155 151 149
297 287 264 286 293 270 242 235 214 191 202 235 89 125 116 117 113 107 104 101 102 114 120 121 121 122 122 126 129 128 130 133 139 145 149 150 151 152
305 313 301 285 293 288 281 262 208 165 169 178 179 146 131 140 132 125 114 104 103 107 117 119 120 120 120 118 116 117 120 123 129 136 140 145 151 151
302 312 335 356 5 9 350 87 127 135 135 158 172 158 149 142 121 108 101 108 112 111 111 114 117 118 118 116 115 113 113 116 118 122 126 130 136 144
34 47 54 50 35 358 23 76 104 122 145 152 147 154 146 141 136 136 120 109 110 120 110 113 120 120 118 116 117 118 119 120 123 128 131 133 135 141
92 81 78 79 69 57 64 79 108 130 150 146 150 152 151 158 161 157 142 136 111 126 117 121 124 119 123 123 120 121 123 126 129 131 134 135 137 142
111 114 125 103 95 93 94 98 121 153 161 164 167 167 169 165 155 155 147 149 151 156 143 139 146 132 139 140 142 139 136 133 134 138 143 144 146 150
97 85 75 80 90 99 116 119 99 108 140 158 168 176 168 165 170 168 161 160 154 165 152 144 139 139 158 159 159 159 157 155 154 156 158 160 164 170
96 100 98 86 59 64 111 108 89 74 99 130 141 147 141 149 168 160 147 131 125 136 148 150 162 160 152 154 169 174 174 174 177 179 180 181 185 193
117 85 88 101 62 40 111 126 117 97 84 94 97 125 134 146 153 140 148 154 155 167 167 156 162 153 142 155 178 186 189 192 196 199 203 205 210 214
123 103 77 87 85 43 22 151 145 128 112 105 104 127 144 157 169 173 171 170 162 168 173 167 176 166 163 170 177 190 201 209 212 216 221 224 224 220
162 136 116 109 96 67 34 88 147 157 151 149 143 141 143 150 170 178 176 178 176 185 175 172 189 187 173 171 183 193 195 201 209 220 227 229 229 222
116 116 134 142 133 131 144 133 118 156 182 169 157 153 156 159 164 164 170 169 165 178 177 177 186 184 186 186 193 188 197 201 201 206 212 223 231 232
67 94 129 162 175 190 188 196 200 227 207 183 171 165 159 158 156 156 158 163 172 189 180 198 208 198 208 215 199 185 193 203 202 205 207 206 212 219
144 137 162 199 238 225 183 213 226 234 216 188 174 162 154 160 174 175 183 187 192 209 207 210 214 217 233 245 220 204 196 196 199 207 201 206 212 216
165 176 194 194 201 197 193 205 224 208 236 238 192 184 176 177 187 190 192 196 204 204 197 208 218 227 231 238 254 233 213 209 202 197 201 215 220 218
181 213 208 208 208 208 206 203 201 214 230 231 212 209 208 200 197 198 197 208 217 211 197 195 195 208 238 249 231 239 231 221 216 200 199 218 231 225
211 227 223 226 226 220 215 213 211 206 209 217 218 215 215 216 203 204 211 223 223 216 207 197 198 212 234 245 235 219 226 231 214 211 214 224 236 233
220 221 224 212 215 236 242 243 242 201 202 221 224 221 214 218 224 223 219 226 235 233 224 213 209 218 238 252 248 228 219 220 220 223 226 231 240 236
216 224 224 217 220 224 249 252 250 247 233 226 228 225 222 230 241 244 235 232 243 248 242 232 220 215 228 245 261 249 218 217 219 216 221 234 241 236
235 231 227 217 205 195 226 253 251 240 230 232 234 226 233 240 244 247 244 240 240 249 256 244 216 219 228 242 255 252 238 214 225 235 238 236 229 235
264 247 236 255 230 212 235 257 260 256 248 254 250 248 247 244 249 250 252 258 267 265 264 257 238 238 242 243 254 254 246 228 214 218 239 245 247 249
Height
1545 1546 1546 1546 1546 1546 1547 1547 1548 1547 1547 1547 1548 1548 1548 1547 1547 1548 1548 1549 1549 1549 1549 1549 1550 1550 1551 1551 1552 1552 1553 1553 1554 1555 1555 1556 1557 1558
1543 1543 1543 1543 1543 1544 1544 1544 1544 1545 1544 1544 1545 1545 1546 1545 1545 1546 1546 1546 1546 1546 1547 1547 1547 1547 1547 1548 1548 1548 1549 1550 1550 1551 1552 1553 1554 1554
1541 1541 1540 1540 1540 1541 1541 1541 1541 1541 1541 1541 1542 1543 1543 1543 1543 1544 1544 1544 1544 1544 1544 1544 1544 1544 1544 1544 1545 1545 1546 1547 1547 1548 1549 1550 1551 1551
1538 1538 1538 1538 1538 1538 1538 1538 1538 1538 1539 1538 1539 1540 1541 1541 1541 1541 1542 1542 1542 1542 1542 1542 1542 1542 1542 1542 1543 1543 1543 1544 1544 1545 1546 1547 1548 1549
1535 1535 1535 1535 1535 1535 1535 1536 1536 1536 1536 1537 1537 1538 1538 1539 1539 1539 1540 1539 1540 1540 1540 1540 1540 1540 1540 1540 1540 1541 1541 1542 1542 1543 1544 1545 1546 1546
1533 1533 1533 1533 1533 1533 1533 1533 1533 1534 1534 1534 1535 1535 1536 1536 1537 1537 1537 1538 1538 1538 1538 1538 1538 1538 1539 1539 1539 1539 1540 1540 1541 1541 1542 1542 1543 1544
1531 1531 1531 1531 1531 1531 1531 1531 1531 1532 1532 1532 1533 1533 1534 1534 1534 1535 1535 1536 1537 1537 1537 1537 1537 1537 1537 1538 1538 1538 1539 1539 1539 1540 1540 1541 1542 1543
1529 1529 1530 1530 1530 1530 1530 1530 1530 1530 1530 1530 1531 1531 1531 1532 1533 1533 1534 1534 1535 1536 1536 1536 1536 1536 1537 1537 1537 1538 1538 1538 1538 1539 1539 1540 1540 1541
1528 1528 1529 1529 1528 1528 1528 1528 1528 1528 1529 1529 1529 1529 1529 1530 1530 1531 1532 1532 1533 1534 1535 1535 1535 1535 1536 1536 1537 1537 1537 1537 1537 1537 1538 1538 1539 1540
1527 1527 1527 1527 1527 1527 1527 1526 1526 1526 1527 1527 1527 1527 1528 1528 1529 1530 1530 1531 1532 1533 1533 1533 1534 1534 1535 1535 1535 1536 1536 1536 1537 1537 1537 1538 1538 1539
1526 1526 1526 1526 1526 1526 1526 1525 1525 1525 1525 1525 1526 1526 1526 1527 1527 1528 1528 1529 1529 1530 1531 1532 1532 1533 1534 1534 1534 1535 1535 1535 1536 1536 1536 1537 1537 1537
1524 1524 1524 1524 1524 1524 1524 1524 1524 1524 1524 1524 1525 1525 1525 1525 1526 1526 1526 1527 1527 1528 1529 1530 1530 1531 1531 1532 1533 1533 1533 1534 1534 1534 1535 1535 1536 1536
1523 1522 1522 1522 1522 1522 1523 1523 1523 1523 1523 1523 1523 1523 1523 1524 1524 1524 1525 1525 1526 1526 1527 1527 1528 1529 1529 1529 1530 1531 1531 1532 1532 1533 1533 1534 1534 1534
1521 1521 1520 1520 1520 1521 1521 1521 1521 1521 1521 1521 1522 1522 1522 1522 1522 1522 1523 1523 1524 1524 1525 1525 1525 1526 1527 1527 1527 1528 1529 1529 1530 1531 1531 1532 1532 1532
1519 1519 1519 1519 1519 1519 1519 1519 1519 1519 1519 1520 1520 1520 1520 1520 1520 1520 1520 1521 1521 1522 1522 1523 1523 1523 1524 1524 1524 1525 1525 1526 1527 1528 1528 1529 1529 1530
1516 1517 1517 1517 1517 1517 1517 1517 1517 1517 1517 1517 1518 1518 1518 1518 1518 1518 1518 1518 1518 1519 1519 1520 1520 1521 1521 1522 1522 1522 1523 1523 1524 1525 1525 1525 1526 1527
1514 1514 1514 1514 1514 1514 1514 1514 1515 1515 1515 1515 1515 1515 1515 1515 1515 1516 1516 1516 1516 1516 1516 1517 1517 1518 1519 1519 1519 1520 1520 1520 1521 1521 1522 1522 1523 1523
1511 1512 1512 1512 1512 1512 1512 1512 1512 1512 1512 1512 1512 1512 1513 1513 1513 1513 1513 1513 1514 1514 1514 1514 1515 1515 1516 1516 1517 1516 1517 1517 1517 1518 1518 1519 1519 1519
1509 1509 1509 1510 1509 1509 1509 1509 1509 1509 1509 1509 1509 1509 1509 1510 1510 1510 1510 1510 1511 1511 1511 1512 1512 1512 1513 1512 1512 1513 1513 1514 1514 1514 1514 1515 1515 1515
1506 1506 1507 1507 1507 1507 1507 1507 1506 1506 1506 1506 1506 1506 1506 1506 1506 1506 1507 1507 1507 1508 1508 1508 1509 1509 1509 1510 1509 1509 1510 1510 1510 1510 1510 1510 1511 1511
1504 1504 1504 1504 1504 1504 1504 1504 1504 1503 1503 1502 1502 1502 1502 1503 1503 1503 1503 1503 1504 1504 1504 1505 1505 1506 1506 1507 1506 1506 1506 1506 1506 1506 1506 1506 1506 1506
1501 1501 1501 1501 1501 1501 1500 1500 1500 1500 1499 1499 1499 1499 1499 1499 1499 1499 1500 1500 1500 1500 1501 1501 1502 1502 1502 1502 1502 1501 1501 1501 1501 1502 1502 1502 1502 1501
1498 1498 1498 1498 1498 1497 1497 1497 1496 1496 1496 1496 1496 1496 1496 1496 1496 1496 1496 1496 1497 1497 1497 1497 1498 1498 1498 1498 1497 1497 1497 1497 1496 1496 1496 1497 1497 1497